Location: Orange
(33.2833°S, 149.1000°E)
Time: 17:21:00
(UTC+11:00)

Hubble Space Telescope - Visible Passes

Search period start: 15 December 2019 00:00
Search period end: 25 December 2019 00:00
Orbit: 536 x 540 km, 28.5° (Epoch: 14 December)

Date Brightness Start Highest point End Pass type
(mag) Time Alt. Az. Time Alt. Az. Time Alt. Az.
15 Dec 1.6 21:47:49 10° WNW 21:51:34 33° N 21:51:55 32° N visible
16 Dec 1.8 21:37:17 10° WNW 21:40:54 29° NNW 21:41:46 27° N visible
17 Dec 2.1 21:26:48 10° WNW 21:30:14 25° NNW 21:31:36 21° NNE visible
18 Dec 2.4 21:16:21 10° WNW 21:19:34 22° NNW 21:21:27 16° NNE visible
19 Dec 2.6 21:05:59 10° WNW 21:08:53 18° NNW 21:11:18 12° NNE visible
20 Dec 2.9 20:55:45 10° WNW 20:58:11 15° NNW 21:00:36 10° NNE visible
21 Dec 3.1 20:45:48 10° NW 20:47:29 12° NNW 20:49:09 10° N visible
